Stündliche Wetter Abeche

Heute, 21 Juni, Montag

Zeit Temperatur Niederschläge Wind Luftdruck Luftfeuchtigkeit
00:00 +32°C° 0 mm 1 m/S 710 mmHg 29%
01:00 +31°C° 0 mm 1 m/S 710 mmHg 31%
02:00 +31°C° 0 mm 1 m/S 710 mmHg 35%
03:00 +30°C° 0 mm 2 m/S 710 mmHg 39%
04:00 +30°C° 0 mm 2 m/S 711 mmHg 43%
05:00 +30°C° 0 mm 3 m/S 711 mmHg 42%
06:00 +31°C° 0 mm 3 m/S 711 mmHg 42%
07:00 +33°C° 0 mm 3 m/S 712 mmHg 42%
08:00 +34°C° 0 mm 3 m/S 712 mmHg 38%
09:00 +36°C° 0 mm 3 m/S 712 mmHg 34%
10:00 +37°C° 0 mm 3 m/S 713 mmHg 30%
11:00 +38°C° 0 mm 2 m/S 712 mmHg 26%
12:00 +39°C° 0 mm 1 m/S 711 mmHg 22%
13:00 +41°C° 0 mm 1 m/S 711 mmHg 19%
14:00 +41°C° 0 mm 1 m/S 710 mmHg 18%
15:00 +41°C° 0 mm 1 m/S 710 mmHg 16%
16:00 +41°C° 0 mm 1 m/S 709 mmHg 15%
17:00 +40°C° 0 mm 2 m/S 709 mmHg 16%
18:00 +39°C° 0 mm 2 m/S 709 mmHg 17%
19:00 +39°C° 0 mm 2 m/S 709 mmHg 17%
20:00 +38°C° 0 mm 2 m/S 709 mmHg 19%
21:00 +37°C° 0 mm 2 m/S 709 mmHg 20%
22:00 +36°C° 0 mm 2 m/S 709 mmHg 21%
23:00 +35°C° 0 mm 2 m/S 709 mmHg 21%

Morgen, 22 Juni, Dienstag

Zeit Temperatur Niederschläge Wind Luftdruck Luftfeuchtigkeit
00:00 +35°C° 0 mm 2 m/S 709 mmHg 21%
01:00 +34°C° 0 mm 2 m/S 709 mmHg 22%
02:00 +32°C° 0 mm 2 m/S 709 mmHg 24%
03:00 +31°C° 0 mm 1 m/S 709 mmHg 26%
04:00 +31°C° 0 mm 1 m/S 709 mmHg 28%
05:00 +31°C° 0 mm 2 m/S 710 mmHg 30%
06:00 +33°C° 0 mm 4 m/S 710 mmHg 32%
07:00 +34°C° 0 mm 5 m/S 711 mmHg 33%
08:00 +35°C° 0 mm 5 m/S 711 mmHg 30%
09:00 +37°C° 0 mm 5 m/S 711 mmHg 28%
10:00 +40°C° 0 mm 5 m/S 711 mmHg 25%
11:00 +40°C° 0 mm 4 m/S 711 mmHg 22%
12:00 +40°C° 0 mm 3 m/S 710 mmHg 19%
13:00 +42°C° 0 mm 3 m/S 710 mmHg 17%
14:00 +42°C° 0 mm 3 m/S 709 mmHg 16%
15:00 +43°C° 0 mm 3 m/S 709 mmHg 15%
16:00 +43°C° 0 mm 3 m/S 708 mmHg 15%
17:00 +41°C° 0 mm 2 m/S 708 mmHg 16%
18:00 +39°C° 0 mm 2 m/S 708 mmHg 17%
19:00 +38°C° 0 mm 2 m/S 708 mmHg 18%
20:00 +37°C° 0 mm 3 m/S 709 mmHg 23%
21:00 +35°C° 0 mm 4 m/S 709 mmHg 27%
22:00 +34°C° 0 mm 5 m/S 710 mmHg 32%
23:00 +34°C° 0 mm 5 m/S 710 mmHg 32%

übermorgen, 23 Juni, Mittwoch

Zeit Temperatur Niederschläge Wind Luftdruck Luftfeuchtigkeit
00:00 +33°C° 0 mm 4 m/S 709 mmHg 33%
01:00 +33°C° 0 mm 3 m/S 709 mmHg 33%
02:00 +31°C° 0 mm 3 m/S 709 mmHg 35%
03:00 +31°C° 0 mm 3 m/S 709 mmHg 36%
04:00 +31°C° 0 mm 3 m/S 710 mmHg 37%
05:00 +31°C° 0 mm 3 m/S 710 mmHg 38%
06:00 +32°C° 0 mm 4 m/S 711 mmHg 40%
07:00 +33°C° 0 mm 5 m/S 711 mmHg 41%
08:00 +34°C° 0 mm 5 m/S 711 mmHg 38%
09:00 +36°C° 0 mm 5 m/S 711 mmHg 35%
10:00 +37°C° 0 mm 5 m/S 711 mmHg 31%
11:00 +39°C° 0 mm 5 m/S 711 mmHg 28%
12:00 +40°C° 0 mm 4 m/S 710 mmHg 26%
13:00 +40°C° 0 mm 3 m/S 710 mmHg 23%
14:00 +40°C° 0 mm 3 m/S 709 mmHg 22%
15:00 +41°C° 0 mm 2 m/S 709 mmHg 21%
16:00 +41°C° 0 mm 2 m/S 708 mmHg 20%
17:00 +37°C° 0.2 mm 5 m/S 709 mmHg 30%
18:00 +34°C° 0.2 mm 8 m/S 710 mmHg 40%
19:00 +31°C° 0.2 mm 11 m/S 710 mmHg 49%
20:00 +32°C° 0.1 mm 8 m/S 710 mmHg 43%
21:00 +33°C° 0.1 mm 5 m/S 710 mmHg 37%
22:00 +34°C° 0.1 mm 2 m/S 710 mmHg 31%
23:00 +34°C° 0.1 mm 3 m/S 710 mmHg 32%

24 Juni, Donnerstag

Zeit Temperatur Niederschläge Wind Luftdruck Luftfeuchtigkeit
00:00 +33°C° 0.1 mm 4 m/S 710 mmHg 34%
01:00 +33°C° 0.1 mm 4 m/S 710 mmHg 35%
02:00 +32°C° 0 mm 4 m/S 710 mmHg 39%
03:00 +32°C° 0 mm 4 m/S 710 mmHg 43%
04:00 +30°C° 0 mm 4 m/S 710 mmHg 47%
05:00 +30°C° 0 mm 4 m/S 711 mmHg 47%
06:00 +30°C° 0 mm 4 m/S 711 mmHg 47%
07:00 +31°C° 0 mm 3 m/S 712 mmHg 47%
08:00 +33°C° 0 mm 4 m/S 712 mmHg 44%
09:00 +34°C° 0 mm 4 m/S 712 mmHg 40%
10:00 +36°C° 0 mm 5 m/S 713 mmHg 37%
11:00 +37°C° 0 mm 5 m/S 712 mmHg 35%
12:00 +38°C° 0 mm 4 m/S 712 mmHg 33%
13:00 +38°C° 0 mm 4 m/S 711 mmHg 31%
14:00 +40°C° 0 mm 4 m/S 711 mmHg 30%
15:00 +40°C° 0 mm 4 m/S 710 mmHg 29%
16:00 +40°C° 0 mm 4 m/S 710 mmHg 28%
17:00 +35°C° 1.7 mm 5 m/S 710 mmHg 40%
18:00 +32°C° 1.7 mm 6 m/S 710 mmHg 52%
19:00 +27°C° 1.7 mm 6 m/S 711 mmHg 63%
20:00 +27°C° 1.1 mm 6 m/S 711 mmHg 63%
21:00 +27°C° 1.1 mm 5 m/S 712 mmHg 62%
22:00 +27°C° 1.1 mm 4 m/S 712 mmHg 62%
23:00 +27°C° 0 mm 4 m/S 712 mmHg 63%

25 Juni, Freitag

Zeit Temperatur Niederschläge Wind Luftdruck Luftfeuchtigkeit
00:00 +27°C° 0 mm 4 m/S 711 mmHg 63%
01:00 +27°C° 0 mm 4 m/S 711 mmHg 64%
02:00 +27°C° 0 mm 3 m/S 711 mmHg 64%
03:00 +27°C° 0 mm 2 m/S 711 mmHg 63%
04:00 +25°C° 0 mm 0 m/S 711 mmHg 63%
05:00 +28°C° 0 mm 1 m/S 711 mmHg 60%
06:00 +28°C° 0 mm 1 m/S 711 mmHg 57%
07:00 +29°C° 0 mm 1 m/S 712 mmHg 55%
08:00 +31°C° 0 mm 2 m/S 712 mmHg 49%
09:00 +32°C° 0 mm 2 m/S 712 mmHg 43%
10:00 +35°C° 0 mm 3 m/S 712 mmHg 37%
11:00 +36°C° 0 mm 4 m/S 712 mmHg 34%
12:00 +37°C° 0 mm 4 m/S 711 mmHg 31%
13:00 +39°C° 0 mm 5 m/S 711 mmHg 28%
14:00 +39°C° 0 mm 5 m/S 710 mmHg 28%
15:00 +40°C° 0 mm 5 m/S 710 mmHg 27%
16:00 +40°C° 0 mm 5 m/S 709 mmHg 27%
17:00 +38°C° 0 mm 4 m/S 709 mmHg 28%
18:00 +37°C° 0 mm 3 m/S 709 mmHg 30%
19:00 +37°C° 0 mm 3 m/S 709 mmHg 31%
20:00 +35°C° 0.1 mm 4 m/S 710 mmHg 39%
21:00 +33°C° 0.1 mm 6 m/S 710 mmHg 46%
22:00 +30°C° 0.1 mm 7 m/S 710 mmHg 54%
23:00 +30°C° 0 mm 6 m/S 710 mmHg 53%

26 Juni, Samstag

Zeit Temperatur Niederschläge Wind Luftdruck Luftfeuchtigkeit
00:00 +29°C° 0 mm 5 m/S 710 mmHg 52%
01:00 +29°C° 0 mm 3 m/S 710 mmHg 52%
02:00 +29°C° 0 mm 3 m/S 710 mmHg 53%
03:00 +29°C° 0 mm 4 m/S 710 mmHg 54%
04:00 +28°C° 0 mm 4 m/S 710 mmHg 56%
05:00 +29°C° 0 mm 4 m/S 710 mmHg 55%
06:00 +29°C° 0 mm 4 m/S 711 mmHg 54%
07:00 +29°C° 0 mm 4 m/S 711 mmHg 53%
08:00 +32°C° 0 mm 4 m/S 711 mmHg 48%
09:00 +33°C° 0 mm 4 m/S 711 mmHg 43%
10:00 +35°C° 0 mm 4 m/S 712 mmHg 38%
11:00 +36°C° 0 mm 4 m/S 711 mmHg 36%
12:00 +37°C° 0 mm 4 m/S 711 mmHg 33%
13:00 +38°C° 0 mm 4 m/S 710 mmHg 30%
14:00 +38°C° 0 mm 4 m/S 710 mmHg 30%
15:00 +40°C° 0 mm 4 m/S 709 mmHg 29%
16:00 +40°C° 0 mm 4 m/S 709 mmHg 28%
17:00 +38°C° 0.1 mm 4 m/S 709 mmHg 30%
18:00 +37°C° 0.1 mm 4 m/S 709 mmHg 31%
19:00 +35°C° 0.1 mm 4 m/S 710 mmHg 33%
20:00 +33°C° 0.6 mm 7 m/S 710 mmHg 42%
21:00 +29°C° 0.6 mm 9 m/S 710 mmHg 51%
22:00 +27°C° 0.6 mm 12 m/S 710 mmHg 60%
23:00 +28°C° 0 mm 9 m/S 710 mmHg 53%
Mehr zeigen

Wir brauchen deine Erlaubnis

Meteoprog und unser Service Anbieter werden persönliche Daten aufbewahren, so wie Cookies, Geräte Bezeichnung oder ähnliche Technologien von deinem Gerät und Prozess, so wie Persönliche Daten Inhalte und Werbungen, genauso wie social Media und den Verkehr zu analysieren.

  • Aufbewahrung und/oder Zugang zu deiner Geräte Informationen.

    Cookies, Geräte Bezeichnung oder andere Informationen, können aufbewahrt oder Zugang zu deinem Gerät erhalten, für den Grund, der oben angegeben wird.

  • Personalisierte Werbung und Inhalte, Messungen, Einblick in das Publikum und Produkt Entwicklung.

    Werbungen und Inhalte können personalisiert werden, basierend auf ein Profil. Mehr Daten können besser personalisierte Werbungen und Inhalte hinzufügen. Werbung und Inhalte können gezeigt und gemessen werden. Einblicke über das Publikum, welche die Werbung gesehen haben und den Inhalt, können abgeleitet werden. So wie Daten können genutzt werden, um es zu verbessern oder die Benutzer Erfahrung zu verbessern das System und die Software.

Wenn du “Ich stimme zu” klickst, erlaubst du uns, die Cookies zu benutzen die Geräte Bezeichnung, den Web oder ähnliche Technologien zu benutzen. Deine Settings, können in deinem Gerät bei deinem Browser geändert werden.

Für den bestimmten Zweck, berechtigten Interessen beruhen darauf, mehr als auf den Inhalt. Du kannst mehr darüber in unseren Privaten und Cookie Politik lesen.